Regional Weather Roundup
Issued by NWS

Home | Current Version | Previous Version | Text Only | Print | Product List | Glossary Off
Versions: 1 2 3 4 5 6 7 8 9 10 11 12 13 14 15 16 17 18 19 20 21 22 23 24 25 26 27 28 29 30 31 32 33 34 35 36 37 38 39 40 41 42 43 44 45 46 47 48 49 50

000
ASUS43 KFSD 191910
RWRSD

WEATHER ROUNDUP FOR SOUTH DAKOTA
NATIONAL WEATHER SERVICE SIOUX FALLS SD
100 PM CST SUN FEB 19 2017

NOTE: "FAIR" INDICATES FEW OR NO CLOUDS BELOW 12,000 FEET WITH NO
SIGNIFICANT WEATHER AND/OR OBSTRUCTIONS TO VISIBILITY.


SDZ001>005-009-010-012>017-192000-
NORTHWEST AND NORTH CENTRAL SOUTH DAKOTA

CITY           SKY/WX    TMP DP  RH WIND       PRES   REMARKS
BUFFALO          N/A     63  33  32 S16       29.39F
FAITH            N/A     57  37  47 S13       29.47F
MOBRIDGE       SUNNY     47  36  65 S10       29.49F
$$

SDZ012>016-024>037-041>051-057-063-072>074-192000-
SOUTHWEST AND SOUTH CENTRAL SOUTH DAKOTA

CITY           SKY/WX    TMP DP  RH WIND       PRES   REMARKS
RAPID CTY ARPT SUNNY     68  32  26 S15       29.49F
PIERRE         SUNNY     64  37  36 S13       29.52F
CUSTER         CLOUDY    52  28  39 SW10G23   29.59F
ELLSWORTH AFB  SUNNY     69  31  24 SW18      29.48F
PHILIP         MOSUNNY   69  36  29 SW16      29.50F
PINE RIDGE     CLOUDY    56  36  47 S9        29.59F
SPEARFISH      FAIR      63  30  29 W8G22     29.52S
WINNER         FAIR      64  40  41 S20       29.59F
$$

SDZ004>011-016>023-039-040-192000-
NORTHEAST SOUTH DAKOTA

CITY           SKY/WX    TMP DP  RH WIND       PRES   REMARKS
ABERDEEN       SUNNY     58  46  64 S23       29.59F
WATERTOWN      SUNNY     55  45  68 S20G26    29.68F
BROOKINGS      SUNNY     55  47  74 S18G26    29.70F
SISSETON         N/A     51  45  79 S20       29.68F
$$

SDZ017-020-022-023-036>040-048>070-192000-
SOUTHEAST SOUTH DAKOTA

CITY           SKY/WX    TMP DP  RH WIND       PRES   REMARKS
SIOUX FALLS    PTSUNNY   61  51  70 S23G30    29.74F
HURON          MOSUNNY   58  46  64 S16G28    29.60F
CHAMBERLAIN    PTSUNNY   64  45  50 S10       29.60F
MITCHELL       MOSUNNY   58  48  69 S22G32    29.65F
YANKTON        CLOUDY    61  48  63 SE18      29.71F
$$

ABBREVIATIONS USED IN REMARKS
   TC - TEMPERATURE IN CELSIUS
  WCI - WIND CHILL INDEX
   HX - HEAT INDEX
  VSB - VISIBILITY





USA.gov is the U.S. government's official web portal to all federal, state and local government web resources and services.